RH
21 24 24 26 27 28 28 30 30 34 39 40 44 35 34 34 36 31 26 20 18 26 23 16 15 17 22
24 22 22 21 24 25 28 36 39 38 38 43 44 38 42 40 30 28 23 24 24 31 31 16 17 16 14
30 25 23 21 25 28 36 44 47 50 48 48 47 42 45 40 29 29 26 20 22 41 25 17 14 15 17
36 31 27 25 31 36 34 43 44 44 49 47 49 46 38 32 28 28 26 20 26 38 22 16 12 12 12
41 34 29 30 37 41 41 48 46 51 57 55 50 42 34 28 28 27 28 25 27 32 23 21 16 14 14
37 36 31 38 46 48 51 56 70 59 74 54 50 40 34 31 29 27 25 24 25 27 23 24 19 14 12
41 37 40 47 57 52 58 77 85 80 85 56 45 38 39 36 34 29 26 25 30 22 28 25 22 19 14
41 43 49 55 59 60 72 90 96 81 73 68 51 43 45 46 41 36 32 32 31 30 35 31 25 22 21
63 59 59 55 65 93 100 100 92 83 64 71 57 56 51 48 50 54 46 45 38 43 53 48 43 32 25
53 52 49 58 85 98 98 98 98 92 67 68 70 70 62 58 53 60 61 63 61 62 58 55 51 44 36
59 57 60 68 72 86 97 99 97 92 75 84 89 85 88 75 54 56 57 58 59 58 58 56 53 51 43
70 68 72 70 85 99 96 91 84 73 80 96 94 89 94 93 75 57 57 56 58 55 55 58 58 55 54
94 76 72 83 100 89 88 89 76 78 83 92 92 91 96 94 91 67 66 57 58 58 58 55 53 51 48
91 85 97 97 90 82 89 85 86 81 89 98 96 94 93 91 93 73 69 72 60 60 60 56 54 56 56
96 96 97 92 80 85 87 92 86 80 85 90 97 96 94 87 78 71 70 69 70 71 70 66 58 58 58
96 97 92 83 78 95 92 96 94 88 89 88 93 93 88 77 76 73 75 74 72 74 74 76 67 59 63
97 95 84 78 92 94 95 97 95 94 92 96 94 97 93 89 76 83 79 74 76 72 74 78 81 62 70
Wind_Speed
29 26 24 23 21 21 21 21 19 19 19 18 18 18 17 16 17 17 15 13 13 12 13 12 12 12 13
30 28 25 23 22 22 20 20 20 19 19 18 20 20 17 15 17 17 16 15 11 11 12 10 9 9 10
31 29 27 24 22 21 20 19 19 18 19 20 20 20 18 16 16 17 14 15 12 11 12 12 10 9 9
30 29 28 24 23 23 22 19 20 18 17 14 13 17 19 18 16 16 16 14 13 12 11 12 10 10 10
30 30 27 24 22 21 22 21 21 17 13 11 16 16 17 18 16 13 13 12 13 14 12 11 11 12 11
30 30 26 23 20 19 21 21 21 14 17 21 17 13 14 14 14 13 14 14 15 15 11 11 15 14 13
30 29 25 21 20 21 19 19 20 18 22 26 17 14 15 13 13 14 14 13 15 12 10 15 15 15 15
29 26 24 22 23 20 18 19 20 21 18 22 19 17 10 15 14 13 13 12 11 9 17 15 14 14 14
31 29 28 25 22 16 18 20 24 23 18 19 13 15 16 11 8 10 10 11 11 19 20 20 20 18 15
30 28 25 23 18 21 23 23 20 20 9 10 13 16 9 8 2 6 12 16 17 16 20 20 19 20 18
26 23 22 22 20 18 19 20 20 20 19 19 18 18 17 19 19 16 14 12 17 16 16 17 17 17 19
22 22 22 20 18 17 19 20 19 17 16 20 22 21 20 22 24 19 17 15 16 16 13 11 15 18 21
23 24 21 16 17 19 18 17 16 16 18 20 21 19 19 21 24 21 23 20 13 12 19 19 19 20 21
22 20 18 19 20 18 17 15 16 18 16 15 16 17 18 19 20 22 21 20 19 18 20 20 20 20 20
24 21 21 19 19 17 16 16 17 17 15 12 13 15 17 18 21 21 19 21 19 18 19 21 20 20 21
22 22 18 19 18 17 18 18 18 18 16 12 10 13 16 16 17 17 18 19 15 17 21 25 26 20 21
19 17 19 18 18 19 19 19 20 18 16 12 11 12 14 19 21 18 18 20 22 23 21 23 26 24 24
Wind_Direction
287 293 296 300 302 303 306 305 304 305 307 307 301 305 301 299 297 298 298 292 293 299 290 296 299 294 290
284 289 291 295 299 300 303 304 305 302 300 301 298 301 295 298 294 293 294 292 291 296 298 295 302 308 308
278 284 289 293 294 297 301 302 302 304 300 297 294 293 293 292 290 291 295 296 296 284 298 302 308 314 320
271 278 283 289 291 297 298 299 299 301 302 298 293 291 294 295 289 286 289 289 288 293 299 308 309 307 314
266 272 277 281 285 293 294 300 301 305 300 296 296 290 286 288 285 284 289 286 286 289 300 311 315 320 328
265 267 273 277 280 286 291 298 307 309 306 304 309 302 293 287 285 283 284 282 275 279 292 318 321 320 321
260 264 269 273 280 283 287 286 288 302 307 302 309 304 299 285 284 284 280 272 264 277 289 306 309 314 317
262 269 270 273 276 281 280 284 289 300 305 296 309 310 303 298 288 272 263 261 273 268 311 309 309 309 312
255 258 262 265 267 269 267 275 290 300 301 294 302 308 318 309 278 258 277 281 279 299 310 311 313 311 311
247 251 253 254 251 248 261 271 283 297 294 285 295 316 326 319 126 322 287 297 295 301 302 303 304 307 308
245 244 246 247 253 255 260 271 275 272 274 281 289 299 304 299 293 298 297 298 301 302 300 299 301 303 305
237 238 242 248 253 259 268 270 272 268 263 266 277 287 291 293 297 307 308 311 310 306 302 305 301 299 301
232 241 245 255 257 266 269 267 264 265 265 269 274 278 278 282 290 305 312 317 315 313 305 301 300 295 293
238 243 249 250 264 269 261 261 266 271 271 270 273 274 276 279 286 297 303 304 308 308 301 298 293 293 295
237 242 249 255 261 258 256 257 268 282 278 269 262 265 272 283 289 296 304 302 308 308 302 300 295 296 292
236 244 246 257 261 252 256 257 270 282 278 279 261 269 278 280 287 300 300 306 310 305 303 303 300 299 295
236 247 254 257 249 248 256 259 270 272 275 274 268 282 296 299 305 311 309 315 312 304 305 303 302 301 297